Waarnemingen

Advertentie
Mijn weer
Edinburgh/Gogarbank, Groot Brittannië (3166): temperatuur & dauwpunt: 22.01.2020 11:00:00 - 28.01.2020 11:00:00 (GMT)Edinburgh/Gogarbank, Groot Brittannië (3166): temperatuur -20cm & temperatuur -100cm: 22.01.2020 11:00:00 - 28.01.2020 11:00:00 (GMT)Edinburgh/Gogarbank, Groot Brittannië (3166): windsnelheid & windstoten: 22.01.2020 11:00:00 - 28.01.2020 11:00:00 (GMT)Edinburgh/Gogarbank, Groot Brittannië (3166): windrichting: 22.01.2020 11:00:00 - 28.01.2020 11:00:00 (GMT)Edinburgh/Gogarbank, Groot Brittannië (3166): luchtdruk: 22.01.2020 11:00:00 - 28.01.2020 11:00:00 (GMT)Edinburgh/Gogarbank, Groot Brittannië (3166): zicht: 22.01.2020 11:00:00 - 28.01.2020 11:00:00 (GMT)Edinburgh/Gogarbank, Groot Brittannië (3166): Zonneschijnduur: 22.01.2020 11:00:00 - 28.01.2020 11:00:00 (GMT)Edinburgh/Gogarbank, Groot Brittannië (3166): neerslag: 22.01.2020 11:00:00 - 28.01.2020 11:00:00 (GMT)
Datum & Tijd tt [°C] td [°C] tt -20cm [°C] tt -100cm [°C] ff [km/u] ff [kn] fx [km/u] fx [kn] dd ppp [hPa] vv [km] sd [min] rr [mm]
28.01.2020 11:00:00 3,3 0,7 - - 15 8 - - ZW 985,4 35 54 0,0
28.01.2020 10:00:00 2,4 0,1 - - 18 10 - - WZW 985,3 35 42 0,0
28.01.2020 09:00:00 1,4 -0,1 6,0 7,0 13 7 - - ZW 985,0 29 0 0,0
28.01.2020 08:00:00 1,7 0,2 - - 22 12 - - WZW 984,5 40 0 0,0
28.01.2020 07:00:00 1,5 0,0 - - 18 10 - - WZW 984,1 50 0 0,0
28.01.2020 06:00:00 1,6 0,3 - - 22 12 - - WZW 983,3 50 0 0,0
28.01.2020 05:00:00 1,5 0,2 - - 24 13 46 25 WZW 982,7 50 0 0,0
28.01.2020 04:00:00 1,9 0,9 - - 16 9 - - WZW 982,2 50 0 0,0
28.01.2020 03:00:00 2,1 1,2 - - 13 7 - - ZW 982,3 19 0 0,8
28.01.2020 02:00:00 1,7 0,8 - - 9 5 - - WZW 982,2 35 0 0,0
28.01.2020 01:00:00 1,0 0,4 - - 4 2 - - O 982,4 12 0 1,4
28.01.2020 00:00:00 1,7 1,0 - - 5 3 - - NO 983,1 14 - 0,4
27.01.2020 23:00:00 2,2 0,8 - - 9 5 - - ZO 984,2 10 0 0,8
27.01.2020 22:00:00 3,0 0,1 - - 5 3 - - ZO 985,1 17 0 0,0
27.01.2020 21:00:00 0,4 -1,4 - - 8 4 - - NO 985,9 22 0 0,0
27.01.2020 20:00:00 1,7 -0,9 - - 8 4 - - NO 986,6 21 0 0,0
27.01.2020 19:00:00 3,1 -0,9 - - 9 5 - - ZZW 987,1 26 0 0,0
27.01.2020 18:00:00 3,1 -1,2 - - 8 4 - - Z 988,1 27 0 0,0
27.01.2020 17:00:00 3,6 -0,8 - - 15 8 - - ZW 988,7 30 0 0,0
27.01.2020 16:00:00 4,7 -0,7 - - 16 9 - - ZW 988,9 40 48 0,0
27.01.2020 15:00:00 5,3 -1,0 - - 21 11 - - WZW 989,3 40 54 0,0
27.01.2020 14:00:00 5,5 -1,0 - - 24 13 46 25 WZW 989,7 40 60 0,0
27.01.2020 13:00:00 5,5 -0,6 - - 22 12 - - WZW 990,2 40 54 0,0
27.01.2020 12:00:00 4,9 -0,6 - - 31 17 50 27 ZW 990,5 40 36 0,0
27.01.2020 11:00:00 3,7 -0,3 - - 24 13 - - ZW 991,0 35 0 0,0
27.01.2020 10:00:00 3,4 -1,3 - - 26 14 - - ZZW 991,4 45 36 0,0
27.01.2020 09:00:00 3,3 -0,9 6,4 7,0 24 13 - - ZW 991,5 40 0 0,0
27.01.2020 08:00:00 3,1 -0,7 - - 22 12 - - ZW 991,4 50 0 0,0
27.01.2020 07:00:00 3,8 0,6 - - 24 13 - - ZW 991,2 45 0 0,0
27.01.2020 06:00:00 4,1 0,9 - - 21 11 - - ZW 991,1 40 0 0,0
27.01.2020 05:00:00 3,7 0,9 - - 15 8 - - ZZW 991,4 45 0 0,0
27.01.2020 04:00:00 4,1 1,5 - - 21 11 - - ZZW 992,4 50 0 0,0
27.01.2020 03:00:00 2,8 1,2 - - 16 9 - - Z 993,2 40 0 0,8
27.01.2020 02:00:00 4,1 0,9 - - 9 5 - - ZZW 993,7 30 0 0,0
27.01.2020 01:00:00 3,5 0,3 - - 5 3 - - Z 995,0 40 0 0,0
27.01.2020 00:00:00 1,9 -0,3 - - 4 2 - - O 996,2 28 - 0,0
26.01.2020 23:00:00 2,8 0,3 - - 8 4 - - Z 996,9 29 0 0,0
26.01.2020 22:00:00 2,2 -0,3 - - 9 5 - - Z 998,4 40 0 0,0
26.01.2020 21:00:00 2,0 -0,2 - - 9 5 - - ZZW 998,7 29 0 0,0
26.01.2020 20:00:00 2,9 0,3 - - 13 7 - - ZZW 999,3 22 0 0,0
26.01.2020 19:00:00 2,7 0,7 - - 8 4 - - ZZW 999,8 25 0 0,0
26.01.2020 18:00:00 3,2 1,3 - - 13 7 - - ZZW 999,6 40 0 0,0
26.01.2020 17:00:00 3,9 1,3 - - 15 8 - - ZW 999,4 45 0 0,0
26.01.2020 16:00:00 4,4 1,8 - - 16 9 - - WZW 999,1 45 0 0,0
26.01.2020 15:00:00 4,9 2,1 - - 22 12 50 27 W 998,9 40 0 0,0
26.01.2020 14:00:00 6,9 3,9 - - 21 11 - - WZW 997,9 15 0 0,0
26.01.2020 13:00:00 6,8 4,1 - - 15 8 - - WZW 998,0 18 0 0,2
26.01.2020 12:00:00 6,6 5,1 - - 21 11 - - WZW 997,8 14 0 1,0
26.01.2020 11:00:00 8,3 6,1 - - 26 14 48 26 ZZW 996,9 8 0 0,2
26.01.2020 10:00:00 8,1 5,9 - - 24 13 46 25 ZZW 997,0 10 0 0,0
26.01.2020 09:00:00 8,2 5,5 6,7 6,9 24 13 - - ZZW 997,6 30 0 0,0
26.01.2020 08:00:00 8,7 5,0 - - 22 12 48 26 ZZW 997,7 50 0 0,0
26.01.2020 07:00:00 8,1 4,5 - - 28 15 50 27 ZZW 998,0 50 0 0,0
26.01.2020 06:00:00 7,8 4,6 - - 22 12 46 25 ZZW 998,9 27 0 0,0
26.01.2020 05:00:00 7,6 4,0 - - 26 14 - - ZZW 999,9 45 0 0,0
26.01.2020 04:00:00 7,1 4,0 - - 9 5 - - Z 1001,0 25 0 0,0
26.01.2020 03:00:00 7,5 3,5 - - 16 9 - - Z 1001,9 27 0 0,0
26.01.2020 02:00:00 7,4 3,7 - - 16 9 - - ZW 1003,0 29 0 0,0
26.01.2020 01:00:00 6,9 4,1 - - 8 4 - - ZW 1003,9 24 0 0,0
26.01.2020 00:00:00 6,7 4,4 - - 15 8 - - ZW 1005,1 12 - 0,0
25.01.2020 23:00:00 6,2 3,8 - - 16 9 - - ZW 1005,7 30 0 0,0
25.01.2020 22:00:00 6,3 4,3 - - 22 12 - - ZZW 1006,4 9 0 0,0
25.01.2020 21:00:00 6,5 4,6 - - 21 11 - - ZW 1006,9 8 0 0,0
25.01.2020 20:00:00 7,2 4,7 - - 16 9 - - ZW 1007,3 50 0 0,0
25.01.2020 19:00:00 6,6 4,6 - - 11 6 - - WZW 1007,6 50 0 0,0
25.01.2020 18:00:00 7,2 4,2 - - 15 8 - - WZW 1007,9 50 0 0,0
25.01.2020 17:00:00 7,1 4,4 - - 18 10 - - WZW 1008,3 50 0 0,0
25.01.2020 16:00:00 7,8 4,0 - - 18 10 - - WZW 1008,4 50 0 0,0
25.01.2020 15:00:00 7,6 4,1 - - 13 7 - - WZW 1008,9 50 0 0,0
25.01.2020 14:00:00 7,3 4,1 - - 16 9 - - WZW 1009,7 50 0 0,0
25.01.2020 13:00:00 7,1 5,1 - - 15 8 - - ZW 1010,4 25 0 0,0
25.01.2020 12:00:00 6,9 4,7 - - 15 8 - - WZW 1011,1 23 0 0,0
25.01.2020 11:00:00 6,8 4,5 - - 21 11 - - ZW 1011,7 40 0 0,0
25.01.2020 10:00:00 6,6 4,6 - - 22 12 46 25 ZW 1011,7 40 0 0,0
25.01.2020 09:00:00 6,6 4,7 6,7 6,9 21 11 - - WZW 1011,4 30 0 0,0
25.01.2020 08:00:00 6,5 4,5 - - 16 9 - - WZW 1011,4 45 0 0,0
25.01.2020 07:00:00 6,6 4,7 - - 16 9 - - WZW 1011,8 19 0 0,0
25.01.2020 06:00:00 6,6 4,7 - - 18 10 - - WZW 1012,1 25 0 0,0
25.01.2020 05:00:00 6,5 5,1 - - 16 9 - - ZW 1012,3 12 0 0,0
25.01.2020 04:00:00 6,8 5,0 - - 24 13 - - ZW 1012,9 14 0 0,0
25.01.2020 03:00:00 7,2 5,2 - - 26 14 - - ZW 1013,3 45 0 0,0
25.01.2020 02:00:00 7,9 5,4 - - 24 13 - - ZW 1013,9 50 0 0,0
25.01.2020 01:00:00 8,1 5,8 - - 15 8 - - ZW 1014,9 50 0 0,0
25.01.2020 00:00:00 7,7 5,9 - - 15 8 - - ZW 1015,5 50 - 0,0
24.01.2020 23:00:00 7,6 5,8 - - 13 7 - - ZW 1015,9 50 0 0,0
24.01.2020 22:00:00 7,9 6,1 - - 16 9 - - ZW 1016,3 50 0 0,0
24.01.2020 21:00:00 7,5 6,0 - - 13 7 - - ZW 1016,9 50 0 0,0
24.01.2020 20:00:00 7,4 5,9 - - 13 7 - - ZW 1017,2 50 0 0,0
24.01.2020 19:00:00 7,9 6,4 - - 13 7 - - WZW 1017,4 50 0 0,0
24.01.2020 18:00:00 8,0 6,6 - - 11 6 - - WZW 1017,3 50 0 0,0
24.01.2020 17:00:00 8,6 6,5 - - 15 8 - - WZW 1017,3 50 0 0,0
24.01.2020 16:00:00 8,7 6,6 - - 15 8 - - WZW 1017,5 50 0 0,0
24.01.2020 15:00:00 8,5 6,6 - - 21 11 - - WZW 1017,4 50 0 0,0
24.01.2020 14:00:00 8,7 6,8 - - 22 12 - - WZW 1017,8 50 0 0,0
24.01.2020 13:00:00 8,9 6,9 - - 21 11 - - WZW 1018,5 50 0 0,0
24.01.2020 12:00:00 8,7 6,7 - - 21 11 - - W 1019,0 50 0 0,0
24.01.2020 11:00:00 8,4 7,0 - - 21 11 - - WZW 1019,3 28 0 0,0
24.01.2020 10:00:00 8,2 7,0 - - 16 9 - - WZW 1019,2 50 0 0,0
24.01.2020 09:00:00 8,0 6,8 6,5 6,7 18 10 - - WZW 1019,1 35 0 0,0
24.01.2020 08:00:00 8,0 6,3 - - 21 11 - - WZW 1019,1 50 0 0,0
24.01.2020 07:00:00 7,9 6,3 - - 21 11 - - WZW 1018,9 50 0 0,0
24.01.2020 06:00:00 7,4 5,9 - - 15 8 - - ZW 1018,9 50 0 0,0
24.01.2020 05:00:00 7,7 6,0 - - 22 12 - - ZW 1019,0 50 0 0,0
24.01.2020 04:00:00 7,3 6,2 - - 24 13 - - ZW 1019,2 9 0 0,0
24.01.2020 03:00:00 7,5 6,3 - - 26 14 - - ZW 1019,7 7 0 0,0
24.01.2020 02:00:00 7,4 6,2 - - 26 14 - - ZW 1020,4 9 0 0,0
24.01.2020 01:00:00 7,5 5,9 - - 22 12 - - WZW 1021,1 50 0 0,0
24.01.2020 00:00:00 7,4 5,7 - - 21 11 - - WZW 1021,9 40 - 0,0
23.01.2020 23:00:00 7,3 5,6 - - 18 10 - - ZW 1022,5 50 0 0,0
23.01.2020 22:00:00 7,4 5,6 - - 21 11 - - WZW 1023,0 50 0 0,0
23.01.2020 21:00:00 7,3 5,7 - - 24 13 - - WZW 1023,3 50 0 0,0
23.01.2020 20:00:00 7,3 5,4 - - 22 12 - - ZW 1023,9 50 0 0,0
23.01.2020 19:00:00 7,5 5,2 - - 18 10 - - WZW 1024,1 50 0 0,0
23.01.2020 18:00:00 7,7 5,5 - - 21 11 - - WZW 1024,8 50 0 0,0
23.01.2020 17:00:00 7,8 5,5 - - 16 9 - - WZW 1024,7 50 0 0,0
23.01.2020 16:00:00 8,3 5,3 - - 18 10 - - WZW 1025,3 50 0 0,0
23.01.2020 15:00:00 8,5 5,3 - - 21 11 - - WZW 1025,8 50 0 0,0
23.01.2020 14:00:00 8,7 5,0 - - 22 12 - - WZW 1026,5 50 18 0,0
23.01.2020 13:00:00 8,5 5,4 - - 24 13 - - WZW 1027,5 50 6 0,0
23.01.2020 12:00:00 8,6 5,3 - - 24 13 - - WZW 1028,3 45 0 0,0
23.01.2020 11:00:00 8,4 5,8 - - 24 13 - - WZW 1028,8 50 6 0,0
23.01.2020 10:00:00 8,1 5,7 - - 26 14 - - WZW 1029,0 50 0 0,0
23.01.2020 09:00:00 8,6 5,8 6,4 6,7 28 15 - - W 1029,3 50 0 0,0
23.01.2020 08:00:00 8,9 5,9 - - 28 15 46 25 W 1029,3 35 0 0,0
23.01.2020 07:00:00 8,6 6,8 - - 18 10 - - WZW 1029,4 18 0 0,0
23.01.2020 06:00:00 7,7 6,1 - - 18 10 - - WZW 1030,0 35 0 0,0
23.01.2020 05:00:00 8,0 6,4 - - 18 10 - - ZW 1030,2 35 0 0,0
23.01.2020 04:00:00 8,7 7,3 - - 22 12 - - WZW 1031,0 45 0 0,0
23.01.2020 03:00:00 8,5 7,2 - - 21 11 - - WZW 1032,3 50 0 0,0
23.01.2020 02:00:00 8,2 7,2 - - 15 8 - - ZW 1033,1 45 0 0,0
23.01.2020 01:00:00 8,9 7,8 - - 16 9 - - ZW 1033,3 35 0 0,0
23.01.2020 00:00:00 8,9 8,2 - - 21 11 - - WZW 1034,5 18 - 0,0
22.01.2020 23:00:00 9,1 8,3 - - 15 8 - - WZW 1034,5 14 0 0,0
22.01.2020 22:00:00 9,2 8,4 - - 13 7 - - WZW 1034,6 16 0 0,0
22.01.2020 21:00:00 9,1 8,2 - - 11 6 - - ZW 1034,8 19 0 0,0
22.01.2020 20:00:00 9,2 8,3 - - 13 7 - - WZW 1035,2 17 0 0,0
22.01.2020 19:00:00 9,6 8,7 - - 16 9 - - WZW 1035,6 19 0 0,0
22.01.2020 18:00:00 9,7 8,7 - - 15 8 - - WZW 1035,8 18 0 0,0
22.01.2020 17:00:00 9,8 8,4 - - 15 8 - - WZW 1035,8 45 0 0,0
22.01.2020 16:00:00 10,0 8,5 - - 15 8 - - WZW 1035,9 45 0 0,0
22.01.2020 15:00:00 10,7 8,6 - - 16 9 - - WZW 1035,9 50 0 0,0
22.01.2020 14:00:00 10,8 8,5 - - 18 10 - - WZW 1036,2 45 0 0,0
22.01.2020 13:00:00 10,6 8,2 - - 15 8 - - ZW 1036,4 35 0 0,0
22.01.2020 12:00:00 10,3 7,9 - - 15 8 - - WZW 1037,0 30 6 0,0
22.01.2020 11:00:00 9,6 7,5 - - 18 10 - - WZW 1037,4 26 18 0,0

tt = temperatuur
td = dauwpunt
tt -20cm = temperatuur -20cm
tt -100cm = temperatuur -100cm
ff = windsnelheid
fx = windstoten
dd = windrichting
ppp = luchtdruk
vv = zicht
sd = Zonneschijnduur
rr = neerslag

Weerstations in de omgeving